Terug naar catalogus

THORAD DELTA 1 DEB

ActiefSSO
NORAD 8163·DEBRIS·🇺🇸 United States

Gelanceerd Nov 15, 1974 vanaf Vandenberg Space Force Base

Loading…

Volgende Passages (komende 24 uur)

TLE

VersSource: Space-Track

Epoch: Sep 14, 2026, 12:12 UTC

1  8163U 74089AD  26257.50853821  .00000316  00000-0  23267-2 0  9992
2  8163 102.4740 282.1423 0310760 256.1961 100.4342 12.39473957321759

Volg THORAD DELTA 1 DEB in realtime met AllMySat

Download on the App Store